Renton, WA
on Sunday, December 9, 2012

Sunday
Previous Day Next Day
Daily Summary
 ActualAverage (KSEA)Record (KSEA)
Temperature
Mean Temperature °F 41°F  
Max Temperature 46°F 46°F 60°F (1993)
Min Temperature 39°F 36°F 18°F (2009)
Degree Days
Heating Degree Days 22 24  
Month to date heating degree days 212  
Since 1 July heating degree days 1395  
Cooling Degree Days 0 0  
Month to date cooling degree days 0  
Year to date cooling degree days 189  
Moisture
Dew Point 39°F   
Average Humidity 85    
Maximum Humidity 93    
Minimum Humidity 76    
Precipitation
Precipitation 0.04 in 0.17 in 1.78 in (1956)
Month to date precipitation 1.70  
Year to date precipitation 33.84  
Snow
Snow 0.00 in in T in (1978)
Month to date snowfall  
Since 1 July snowfall  
Snow Depth in   
Wind
Wind Speed 2 mph   
Max Wind Speed 5 mph   
Max Gust Speed mph   
Visibility 6 miles   
Events Rain   

Key: T is trace of precipitation, MM is missing value
Source: NWS Daily Summary
Time(PST)TemperatureDew PointHumidity Pressure Visibility Wind DirectionWind SpeedGust SpeedPrecipitationEvents Conditions
12:53 AM 39.9°F 35.1°F 83% 30.38 in 10.0 miles SSE 3.5 mph - N/A   Clear
1:53 AM 41.0°F 35.1°F 79% 30.38 in 10.0 miles Calm Calm - N/A   Mostly Cloudy
2:36 AM 41.0°F 35.6°F 81% 30.38 in 10.0 miles SSE 4.6 mph - N/A   Overcast
2:53 AM 42.1°F 35.1°F 76% 30.40 in 10.0 miles Calm Calm - N/A   Overcast
3:17 AM 42.8°F 35.6°F 76% 30.38 in 10.0 miles Calm Calm - N/A   Overcast
3:30 AM 41.0°F 35.6°F 81% 30.38 in 10.0 miles Calm Calm - N/A   Overcast
3:40 AM 41.0°F 35.6°F 81% 30.38 in 10.0 miles South 3.5 mph - N/A   Overcast
3:53 AM 41.0°F 36.0°F 82% 30.39 in 10.0 miles South 3.5 mph - N/A   Overcast
4:53 AM 41.0°F 36.0°F 82% 30.39 in 10.0 miles Calm Calm - N/A   Overcast
5:06 AM 41.0°F 35.6°F 81% 30.37 in 10.0 miles Calm Calm - N/A   Overcast
5:40 AM 41.0°F 35.6°F 81% 30.37 in 10.0 miles Calm Calm - N/A   Overcast
5:53 AM 41.0°F 35.1°F 79% 30.39 in 10.0 miles Calm Calm - N/A   Overcast
6:53 AM 41.0°F 35.1°F 79% 30.38 in 10.0 miles Calm Calm - N/A   Overcast
7:53 AM 41.0°F 34.0°F 76% 30.38 in 10.0 miles Calm Calm - 0.00 in Rain Light Rain
8:53 AM 41.0°F 35.1°F 79% 30.37 in 10.0 miles ESE 4.6 mph - 0.01 in   Overcast
9:53 AM 42.1°F 37.0°F 82% 30.38 in 9.0 miles Calm Calm - 0.00 in Rain Light Rain
10:53 AM 42.1°F 37.0°F 82% 30.36 in 10.0 miles SSE 4.6 mph - 0.01 in   Overcast
11:46 AM 44.6°F 37.4°F 76% 30.31 in 10.0 miles ESE 4.6 mph - 0.00 in Rain Light Rain
11:53 AM 44.1°F 37.9°F 79% 30.32 in 10.0 miles Variable 4.6 mph - 0.00 in Rain Light Rain
12:53 PM 44.1°F 37.9°F 79% 30.32 in 9.0 miles East 4.6 mph - 0.00 in Rain Light Rain
1:11 PM 44.6°F 37.4°F 76% 30.31 in 10.0 miles East 3.5 mph - 0.00 in   Overcast
1:53 PM 44.1°F 39.0°F 82% 30.31 in 3.0 miles SE 3.5 mph - 0.00 in   Haze
2:53 PM 44.1°F 39.9°F 85% 30.30 in 2.5 miles ESE 4.6 mph - N/A   Overcast
3:01 PM 44.6°F 39.2°F 81% 30.29 in - North - - N/A   Mist
3:08 PM 44.6°F 41.0°F 87% 30.29 in 2.5 miles Calm Calm - N/A   Overcast
3:46 PM 44.6°F 41.0°F 87% 30.30 in 1.8 miles Calm Calm - N/A   Overcast
3:53 PM 44.1°F 41.0°F 89% 30.32 in 1.8 miles Calm Calm - N/A   Overcast
4:53 PM 45.0°F 41.0°F 86% 30.31 in 1.8 miles Calm Calm - 0.00 in Rain Light Rain
5:00 PM 44.6°F 41.0°F 87% 30.29 in 2.0 miles SSE 3.5 mph - 0.00 in Rain Light Rain
5:27 PM 44.6°F 41.0°F 87% 30.30 in 7.0 miles Calm Calm - 0.00 in   Overcast
5:53 PM 45.0°F 41.0°F 86% 30.33 in 2.5 miles Calm Calm - 0.01 in Rain Light Rain
6:23 PM 44.6°F 42.8°F 93% 30.31 in 2.5 miles Calm Calm - 0.00 in   Overcast
6:31 PM 44.6°F 42.8°F 93% 30.31 in 2.5 miles Calm Calm - 0.00 in   Overcast
6:53 PM 45.0°F 42.1°F 90% 30.32 in 2.5 miles Calm Calm - 0.00 in   Overcast
7:24 PM 44.6°F 42.8°F 93% 30.31 in 1.8 miles Calm Calm - N/A   Overcast
7:32 PM 44.6°F 42.8°F 93% 30.30 in 2.0 miles Calm Calm - N/A   Overcast
7:45 PM 44.6°F 42.8°F 93% 30.31 in 2.0 miles Calm Calm - N/A   Overcast
7:53 PM 45.0°F 42.1°F 90% 30.32 in 2.0 miles Calm Calm - 0.01 in   Overcast
8:13 PM 44.6°F 42.8°F 93% 30.31 in 2.5 miles Calm Calm - N/A   Overcast
8:22 PM 44.6°F 42.8°F 93% 30.31 in 3.0 miles Calm Calm - N/A   Overcast
8:29 PM 44.6°F 42.8°F 93% 30.32 in 2.5 miles Calm Calm - N/A   Overcast
8:42 PM 44.6°F 42.8°F 93% 30.32 in 3.0 miles Calm Calm - N/A   Overcast
8:53 PM 45.0°F 42.1°F 90% 30.34 in 3.0 miles NNW 3.5 mph - N/A   Overcast
9:44 PM 46.4°F 42.8°F 87% 30.34 in 4.0 miles NNW 3.5 mph - N/A Rain Light Rain
9:51 PM 46.4°F 42.8°F 87% 30.34 in 4.0 miles Calm Calm - 0.00 in   Overcast
9:53 PM 46.0°F 43.0°F 89% 30.36 in 4.0 miles NW 3.5 mph - 0.00 in   Overcast
10:21 PM 46.4°F 42.8°F 87% 30.34 in 5.0 miles NNW 3.5 mph - 0.00 in Rain Light Rain
10:53 PM 45.0°F 42.1°F 90% 30.37 in 8.0 miles Calm Calm - 0.00 in   Overcast
11:03 PM 44.6°F 42.8°F 93% 30.35 in 9.0 miles Calm Calm - N/A   Overcast
11:44 PM 44.6°F 42.8°F 93% 30.36 in 9.0 miles Calm Calm - N/A   Overcast
11:53 PM 46.0°F 43.0°F 89% 30.38 in 7.0 miles Calm Calm - N/A   Overcast
Moon Phase
Dec. 09 Dec. 13 Dec. 20 Dec. 28 Jan. 04
Sunrise:07:45 AM (PST) Moon Rise:03:11 AM (PST)12/9
Sunset:04:17 PM (PST) Moon Set:01:39 PM (PST)12/9

Copyright © 2014 The Weather Underground, Inc.